Location: Gollag?dem
(16.8053°N, 80.8024°E)
Time: 16:57:22
(UTC+00:00)

ADEOS - Pass Details

Date: 13 August 2020
Orbit: 792 x 795 km, 98.9° (Epoch: 18 September)

Event Time Altitude Azimuth Distance (km) Brightness Sun altitude
Rises 22:57:34 0° 6° (N) 3,284 7.2 -19.6°
Reaches altitude 10° 22:59:55 10° 3° (N) 2,354 6.3 -19.1°
Maximum altitude 23:05:01 60° 284° (WNW) 900 3.6 -17.9°
Enters shadow 23:08:32 20° 210° (SSW) 1,748 4.9 -17.1°
